STARLINK-3849 (52343 NORAD) Tracking and Keplerian Element Data
This shows tracking and keplerian element data for the satellite.
Feedback or suggestion? Click here.
Element | Value |
Catalog | 52343 |
Name | STARLINK-3849 |
Epoch Orbit | 130 |
Epoch Day | 167.08334491 |
Epoch Year | 2022 |
RAAN | 207.4452 |
Inclination | 53.2172 |
Eccentricity | 0.0001729 |
Argument of Perigee | 42.8695 |
Mean Anonmoly | 156.1593 |
Mean Motion | 15.34379803 |
Decay Rate | -0.00701568 |
L1 | 1 52343U 22045N 22167.08334491 -.00701568 00000+0 -22459-1 0 9991 |
L2 | 2 52343 53.2172 207.4452 0001729 42.8695 156.1593 15.34379803 1303 |
Live tracking and technical data element details for STARLINK-3849 (NORAD 52343). STARLINK-3849 can be tracked NOW for your location showing map with azimuth and elevation plus other details from your city location.
Track the satellite on the map from your city or location and see movement details for azimuth, elevation, latitude, longitude, range, height, and movement on the map or in text.
IsCatalogInMostPopularTable: catalog: 52343, numindb: 1
Update: records affected: 1
GetName: 52343 STARLINK-3849
Hit Count: updated at: Mon, 27 Jun 2022 04:42:12 GMT